| time (UTC) | temp C | wind direction | speed KPH | gust KPH | rain 1hr cm | rain 24hr cm | rain mn cm | humidity % | barometer mb |
| 20260505114519 | 14 | 205 | 3.2 | 4.8 | 0.00 | 0.38 | 0.38 | 88 | 1003.6 |
| 20260505114015 | 14 | 274 | 3.2 | 4.8 | 0.00 | 0.38 | 0.38 | 88 | 1003.9 |
| 20260505113512 | 14 | 216 | 3.2 | 3.2 | 0.00 | 0.38 | 0.38 | 88 | 1003.2 |
| 20260505113008 | 14 | 256 | 4.8 | 6.4 | 0.00 | 0.38 | 0.38 | 88 | 1003.6 |
| 20260505112504 | 14 | 221 | 1.6 | 3.2 | 0.00 | 0.38 | 0.38 | 88 | 1003.6 |
| 20260505112002 | 14 | 286 | 6.4 | 6.4 | 0.00 | 0.38 | 0.38 | 88 | 1003.2 |
| 20260505111456 | 14 | 215 | 3.2 | 3.2 | 0.00 | 0.38 | 0.38 | 88 | 1003.2 |
| 20260505110953 | 14 | 276 | 4.8 | 4.8 | 0.00 | 0.38 | 0.38 | 88 | 1003.2 |
| 20260505110449 | 14 | 199 | 1.6 | 3.2 | 0.00 | 0.38 | 0.38 | 89 | 1002.9 |
| 20260505101921 | 14 | 267 | 4.8 | 4.8 | 0.00 | 0.38 | 0.38 | 88 | 1002.2 |
| 20260505101415 | 14 | 191 | 1.6 | 3.2 | 0.00 | 0.38 | 0.38 | 88 | 1002.2 |
| 20260505100911 | 14 | 183 | 0.0 | 0.0 | 0.00 | 0.38 | 0.38 | 88 | 1002.2 |
| 20260505100408 | 14 | 231 | 4.8 | 4.8 | 0.00 | 0.38 | 0.38 | 88 | 1001.9 |
| 20260505095903 | 14 | 222 | 3.2 | 3.2 | 0.00 | 0.38 | 0.38 | 89 | 1001.9 |
| 20260505095401 | 14 | 191 | 0.0 | 0.0 | 0.00 | 0.38 | 0.38 | 89 | 1001.9 |
| 20260505094857 | 14 | 194 | 3.2 | 3.2 | 0.00 | 0.38 | 0.38 | 89 | 1002.2 |
| 20260505094354 | 14 | 186 | 3.2 | 4.8 | 0.00 | 0.38 | 0.38 | 89 | 1002.6 |
| 20260505093849 | 14 | 191 | 0.0 | 0.0 | 0.00 | 0.38 | 0.38 | 89 | 1001.9 |
| 20260505093347 | 14 | 174 | 3.2 | 3.2 | 0.00 | 0.38 | 0.38 | 90 | 1001.9 |
| 20260505092844 | 14 | 196 | 3.2 | 3.2 | 0.00 | 0.38 | 0.38 | 90 | 1002.2 |
| 20260505092342 | 14 | 187 | 0.0 | 1.6 | 0.00 | 0.38 | 0.38 | 90 | 1001.9 |
| 20260505091839 | 14 | 195 | 3.2 | 3.2 | 0.00 | 0.38 | 0.38 | 91 | 1001.9 |
| 20260505091337 | 14 | 180 | 1.6 | 1.6 | 0.00 | 0.38 | 0.38 | 91 | 1001.9 |
| 20260505090835 | 14 | 167 | 0.0 | 1.6 | 0.00 | 0.38 | 0.38 | 91 | 1001.9 |
| 20260505090333 | 14 | 182 | 0.0 | 1.6 | 0.00 | 0.38 | 0.38 | 92 | 1001.9 |
| 20260505085830 | 14 | 185 | 0.0 | 1.6 | 0.00 | 0.38 | 0.38 | 92 | 1001.9 |
| 20260505085328 | 13 | 263 | 3.2 | 3.2 | 0.00 | 0.38 | 0.38 | 93 | 1001.9 |
| 20260505084825 | 13 | 200 | 1.6 | 1.6 | 0.00 | 0.38 | 0.38 | 94 | 1001.9 |
| 20260505084324 | 13 | 183 | 0.0 | 0.0 | 0.00 | 0.38 | 0.38 | 94 | 1001.9 |
| 20260505083820 | 13 | 183 | 0.0 | 0.0 | 0.00 | 0.38 | 0.38 | 94 | 1001.6 |
| 20260505083318 | 13 | 185 | 0.0 | 0.0 | 0.00 | 0.38 | 0.38 | 95 | 1001.9 |
| 20260505082814 | 13 | 190 | 0.0 | 1.6 | 0.00 | 0.38 | 0.38 | 95 | 1001.6 |
| 20260505082311 | 13 | 192 | 0.0 | 0.0 | 0.00 | 0.38 | 0.38 | 95 | 1001.6 |
| 20260505081807 | 13 | 213 | 1.6 | 1.6 | 0.00 | 0.38 | 0.38 | 95 | 1001.2 |
| 20260505081304 | 13 | 196 | 0.0 | 0.0 | 0.00 | 0.38 | 0.38 | 95 | 1001.2 |
| 20260505080801 | 14 | 183 | 0.0 | 0.0 | 0.00 | 0.38 | 0.38 | 95 | 1001.2 |
| 20260505080256 | 14 | 183 | 0.0 | 0.0 | 0.00 | 0.38 | 0.38 | 95 | 1001.2 |
| 20260505075752 | 13 | 186 | 0.0 | 0.0 | 0.00 | 0.38 | 0.38 | 96 | 1001.2 |
| 20260505075249 | 13 | 184 | 0.0 | 0.0 | 0.00 | 0.38 | 0.38 | 96 | 1000.9 |
| 20260505074747 | 13 | 189 | 0.0 | 0.0 | 0.00 | 0.38 | 0.38 | 96 | 1001.2 |
| 20260505074244 | 13 | 184 | 0.0 | 0.0 | 0.00 | 0.38 | 0.38 | 96 | 1000.9 |
| 20260505073741 | 13 | 183 | 0.0 | 0.0 | 0.00 | 0.38 | 0.38 | 96 | 1000.4 |
| 20260505073239 | 13 | 184 | 0.0 | 0.0 | 0.00 | 0.38 | 0.38 | 96 | 1000.9 |
| 20260505072735 | 13 | 187 | 0.0 | 0.0 | 0.00 | 0.38 | 0.38 | 96 | 1000.4 |
| 20260505072232 | 13 | 224 | 1.6 | 1.6 | 0.00 | 0.38 | 0.38 | 96 | 1000.4 |
| 20260505071727 | 13 | 187 | 0.0 | 0.0 | 0.00 | 0.38 | 0.38 | 96 | 1000.1 |
| 20260505071225 | 14 | 188 | 0.0 | 0.0 | 0.00 | 0.38 | 0.38 | 95 | 1000.1 |
| 20260505070722 | 14 | 186 | 0.0 | 0.0 | 0.00 | 0.38 | 0.38 | 95 | 1000.1 |
| 20260505070218 | 14 | 185 | 0.0 | 0.0 | 0.00 | 0.38 | 0.38 | 95 | 1000.1 |
| 20260505065714 | 14 | 188 | 0.0 | 0.0 | 0.00 | 0.38 | 0.38 | 95 | 1000.4 |
| 20260505065211 | 14 | 195 | 0.0 | 1.6 | 0.00 | 0.38 | 0.38 | 94 | 1000.4 |
| 20260505064708 | 14 | 183 | 0.0 | 0.0 | 0.00 | 0.38 | 0.38 | 94 | 1000.4 |
| 20260505064206 | 14 | 182 | 0.0 | 0.0 | 0.00 | 0.38 | 0.38 | 94 | 1000.9 |
| 20260505063703 | 14 | 205 | 3.2 | 3.2 | 0.00 | 0.38 | 0.38 | 94 | 1001.2 |
| 20260505063159 | 14 | 275 | 4.8 | 6.4 | 0.00 | 0.38 | 0.38 | 94 | 1001.2 |
| 20260505062655 | 15 | 206 | 3.2 | 4.8 | 0.00 | 0.38 | 0.38 | 93 | 1001.2 |
| 20260505062154 | 15 | 181 | 0.0 | 0.0 | 0.00 | 0.38 | 0.38 | 93 | 1000.9 |
| 20260505061650 | 15 | 288 | 6.4 | 9.7 | 0.18 | 0.38 | 0.38 | 93 | 1000.9 |
| 20260505061148 | 15 | 184 | 0.0 | 1.6 | 0.18 | 0.38 | 0.38 | 93 | 1000.1 |
| 20260505060645 | 15 | 194 | 4.8 | 4.8 | 0.00 | 0.36 | 0.36 | 93 | 1000.9 |
| 20260505060142 | 15 | 198 | 0.0 | 1.6 | 0.00 | 0.36 | 0.36 | 92 | 1000.9 |
| 20260505055637 | 15 | 196 | 6.4 | 6.4 | 0.00 | 0.36 | 0.36 | 92 | 1000.4 |
| 20260505055134 | 14 | 194 | 0.0 | 1.6 | 0.00 | 0.36 | 0.36 | 92 | 1000.1 |
| 20260505054632 | 14 | 179 | 0.0 | 0.0 | 0.13 | 0.36 | 0.36 | 93 | 1000.4 |
| 20260505054130 | 14 | 259 | 1.6 | 4.8 | 0.13 | 0.36 | 0.36 | 94 | 1000.4 |
| 20260505053627 | 14 | 202 | 4.8 | 4.8 | 0.00 | 0.33 | 0.33 | 94 | 1000.4 |
| 20260505053123 | 14 | 187 | 0.0 | 0.0 | 0.00 | 0.33 | 0.33 | 95 | 1000.4 |
| 20260505052620 | 14 | 202 | 3.2 | 3.2 | 0.00 | 0.33 | 0.33 | 95 | 1000.4 |
| 20260505052118 | 14 | 190 | 1.6 | 1.6 | 0.00 | 0.33 | 0.33 | 95 | 1001.2 |
| 20260505051614 | 14 | 185 | 0.0 | 0.0 | 0.00 | 0.33 | 0.33 | 94 | 1001.2 |
| 20260505051113 | 14 | 188 | 1.6 | 3.2 | 0.00 | 0.33 | 0.33 | 94 | 1001.6 |
| 20260505050610 | 14 | 182 | 1.6 | 1.6 | 0.00 | 0.33 | 0.33 | 93 | 1001.6 |
| 20260505050108 | 15 | 192 | 0.0 | 1.6 | 0.00 | 0.33 | 0.33 | 92 | 1001.6 |
| 20260505041538 | 18 | 241 | 8.0 | 11.3 | 0.00 | 0.00 | 0.00 | 72 | 1001.2 |
| 20260505041035 | 18 | 211 | 1.6 | 3.2 | 0.00 | 0.00 | 0.00 | 73 | 1000.9 |
| 20260505040532 | 18 | 250 | 1.6 | 3.2 | 0.00 | 0.00 | 0.00 | 72 | 1000.9 |
| 20260505040030 | 18 | 183 | 1.6 | 3.2 | 0.00 | 0.69 | 0.69 | 73 | 1000.9 |
| 20260505035525 | 18 | 200 | 1.6 | 1.6 | 0.00 | 0.69 | 0.69 | 73 | 1000.9 |
| 20260505035022 | 18 | 203 | 8.0 | 12.9 | 0.00 | 0.69 | 0.69 | 73 | 1000.4 |
| 20260505034519 | 18 | 215 | 1.6 | 1.6 | 0.00 | 0.69 | 0.69 | 73 | 1000.4 |
| 20260505034016 | 18 | 182 | 0.0 | 1.6 | 0.00 | 0.69 | 0.69 | 73 | 1000.4 |
| 20260505033513 | 18 | 183 | 1.6 | 3.2 | 0.00 | 0.69 | 0.69 | 73 | 1000.4 |
| 20260505033011 | 18 | 207 | 1.6 | 1.6 | 0.00 | 0.69 | 0.69 | 74 | 1000.9 |
| 20260505032508 | 18 | 194 | 4.8 | 4.8 | 0.00 | 0.69 | 0.69 | 74 | 1000.4 |
| 20260505032004 | 18 | 240 | 3.2 | 3.2 | 0.00 | 0.69 | 0.69 | 74 | 1000.9 |
| 20260505031502 | 18 | 247 | 3.2 | 4.8 | 0.00 | 0.69 | 0.69 | 77 | 1000.1 |
| 20260505030958 | 17 | 241 | 6.4 | 9.7 | 0.00 | 0.69 | 0.69 | 78 | 1000.4 |
| 20260505030455 | 17 | 181 | 0.0 | 0.0 | 0.00 | 0.69 | 0.69 | 84 | 1000.1 |
| 20260505025950 | 16 | 181 | 0.0 | 0.0 | 0.00 | 0.69 | 0.69 | 84 | 1000.4 |
| 20260505025447 | 15 | 181 | 0.0 | 0.0 | 0.00 | 0.69 | 0.69 | 89 | 1000.4 |
| 20260505024946 | 15 | 184 | 0.0 | 0.0 | 0.00 | 0.69 | 0.69 | 94 | 1000.4 |
| 20260505024443 | 15 | 182 | 0.0 | 0.0 | 0.00 | 0.69 | 0.69 | 94 | 1000.9 |
| 20260505023940 | 15 | 181 | 0.0 | 0.0 | 0.00 | 0.69 | 0.69 | 95 | 1001.2 |
| 20260505023437 | 15 | 188 | 0.0 | 0.0 | 0.00 | 0.69 | 0.69 | 95 | 1001.2 |
| 20260505022934 | 15 | 181 | 0.0 | 0.0 | 0.00 | 0.69 | 0.69 | 96 | 1000.9 |
| 20260505022432 | 15 | 192 | 1.6 | 1.6 | 0.00 | 0.69 | 0.69 | 96 | 1000.9 |
| 20260505021929 | 15 | 182 | 0.0 | 0.0 | 0.00 | 0.69 | 0.69 | 96 | 1000.9 |
| 20260505021425 | 15 | 185 | 0.0 | 0.0 | 0.00 | 0.69 | 0.69 | 96 | 1000.9 |
| 20260505020921 | 15 | 183 | 0.0 | 0.0 | 0.00 | 0.69 | 0.69 | 96 | 1000.9 |
| 20260505020416 | 15 | 202 | 0.0 | 1.6 | 0.00 | 0.69 | 0.69 | 96 | 1000.9 |
| 20260505015913 | 15 | 182 | 0.0 | 0.0 | 0.00 | 0.69 | 0.69 | 96 | 1000.4 |
| 20260505015411 | 15 | 181 | 0.0 | 0.0 | 0.00 | 0.69 | 0.69 | 96 | 1000.4 |
| 20260505014908 | 15 | 185 | 0.0 | 0.0 | 0.00 | 0.69 | 0.69 | 96 | 1000.4 |
| 20260505014405 | 15 | 178 | 0.0 | 0.0 | 0.00 | 0.69 | 0.69 | 96 | 1000.4 |
| 20260505013902 | 15 | 185 | 0.0 | 0.0 | 0.00 | 0.69 | 0.69 | 96 | 1000.4 |
| 20260505013358 | 15 | 184 | 0.0 | 0.0 | 0.00 | 0.69 | 0.69 | 96 | 1000.9 |
| 20260505012857 | 15 | 185 | 0.0 | 0.0 | 0.00 | 0.69 | 0.69 | 95 | 1000.4 |
| 20260505012354 | 15 | 184 | 0.0 | 0.0 | 0.00 | 0.69 | 0.69 | 95 | 1000.4 |
| 20260505011850 | 15 | 184 | 0.0 | 0.0 | 0.00 | 0.69 | 0.69 | 94 | 1000.4 |
| 20260505011347 | 15 | 186 | 0.0 | 0.0 | 0.00 | 0.69 | 0.69 | 94 | 1000.4 |
| 20260505010843 | 15 | 181 | 0.0 | 0.0 | 0.00 | 0.69 | 0.69 | 93 | 1000.4 |
| 20260505010339 | 15 | 183 | 1.6 | 1.6 | 0.18 | 0.69 | 0.69 | 92 | 1000.1 |
| 20260505005836 | 15 | 183 | 0.0 | 1.6 | 0.66 | 0.69 | 0.69 | 92 | 1000.1 |
| 20260505005332 | 16 | 153 | 3.2 | 3.2 | 0.00 | 0.58 | 0.58 | 92 | 1000.1 |
| 20260505004830 | 16 | 179 | 1.6 | 1.6 | 0.00 | 0.58 | 0.58 | 92 | 1000.1 |
| 20260505004326 | 15 | 196 | 3.2 | 4.8 | 0.00 | 0.58 | 0.58 | 92 | 1000.1 |
| 20260505003824 | 16 | 198 | 3.2 | 3.2 | 0.00 | 0.58 | 0.58 | 92 | 1000.1 |
| 20260505003321 | 16 | 201 | 1.6 | 1.6 | 0.00 | 0.58 | 0.58 | 92 | 999.8 |
| 20260505002817 | 15 | 181 | 0.0 | 0.0 | 0.00 | 0.58 | 0.58 | 93 | 999.8 |
| 20260505002314 | 16 | 177 | 0.0 | 0.0 | 0.00 | 0.58 | 0.58 | 93 | 1000.1 |
| 20260505001812 | 15 | 178 | 1.6 | 3.2 | 0.00 | 0.58 | 0.58 | 94 | 999.8 |
| 20260505001309 | 15 | 191 | 1.6 | 1.6 | 0.00 | 0.58 | 0.58 | 94 | 1000.1 |
| 20260505000806 | 15 | 173 | 1.6 | 3.2 | 0.43 | 0.58 | 0.58 | 94 | 1000.1 |
| 20260505000304 | 15 | 183 | 1.6 | 3.2 | 0.43 | 0.58 | 0.58 | 93 | 1000.4 |
| 20260504235800 | 15 | 213 | 1.6 | 3.2 | 0.00 | 0.51 | 0.51 | 93 | 1000.9 |
| 20260504235256 | 16 | 193 | 1.6 | 1.6 | 0.00 | 0.51 | 0.51 | 93 | 1000.9 |
| 20260504234754 | 16 | 198 | 1.6 | 1.6 | 0.00 | 0.51 | 0.51 | 92 | 1000.4 |
| 20260504234252 | 16 | 184 | 0.0 | 0.0 | 0.18 | 0.51 | 0.51 | 92 | 1000.4 |
| 20260504233747 | 16 | 179 | 0.0 | 0.0 | 0.61 | 0.51 | 0.51 | 90 | 1000.4 |
| 20260504233243 | 16 | 203 | 6.4 | 6.4 | 2.59 | 0.46 | 0.46 | 89 | 1000.9 |
| 20260504232740 | 17 | 188 | 3.2 | 3.2 | 2.29 | 0.38 | 0.38 | 87 | 1001.2 |
| 20260504232237 | 20 | 175 | 3.2 | 3.2 | 0.18 | 0.03 | 0.03 | 76 | 1001.2 |
| 20260504231734 | 23 | 272 | 6.4 | 14.5 | 0.00 | 0.00 | 0.00 | 52 | 999.8 |
| 20260504231231 | 23 | 181 | 1.6 | 1.6 | 0.00 | 0.00 | 0.00 | 52 | 999.1 |
| 20260504230726 | 23 | 168 | 3.2 | 4.8 | 0.00 | 0.00 | 0.00 | 52 | 999.4 |
| 20260504230225 | 23 | 195 | 3.2 | 4.8 | 0.00 | 0.00 | 0.00 | 51 | 999.8 |
| 20260504225724 | 24 | 254 | 3.2 | 3.2 | 0.00 | 0.00 | 0.00 | 50 | 999.8 |
| 20260504225220 | 24 | 190 | 3.2 | 4.8 | 0.00 | 0.00 | 0.00 | 50 | 999.8 |
| 20260504224717 | 25 | 218 | 4.8 | 6.4 | 0.00 | 0.00 | 0.00 | 49 | 999.1 |
| 20260504224214 | 25 | 208 | 8.0 | 11.3 | 0.00 | 0.00 | 0.00 | 49 | 999.4 |
| 20260504223710 | 25 | 226 | 6.4 | 9.7 | 0.00 | 0.00 | 0.00 | 49 | 999.1 |
| 20260504223206 | 25 | 287 | 6.4 | 16.1 | 0.00 | 0.00 | 0.00 | 49 | 999.1 |
| 20260504222703 | 25 | 160 | 3.2 | 4.8 | 0.00 | 0.00 | 0.00 | 48 | 999.4 |
| 20260504222200 | 25 | 274 | 8.0 | 11.3 | 0.00 | 0.00 | 0.00 | 48 | 999.4 |
| 20260504221657 | 25 | 211 | 6.4 | 6.4 | 0.00 | 0.00 | 0.00 | 48 | 999.4 |
| 20260504221155 | 25 | 191 | 4.8 | 6.4 | 0.00 | 0.00 | 0.00 | 48 | 999.8 |
| 20260504220650 | 25 | 206 | 8.0 | 11.3 | 0.00 | 0.00 | 0.00 | 48 | 999.8 |
| 20260504220149 | 25 | 297 | 4.8 | 4.8 | 0.00 | 0.00 | 0.00 | 48 | 999.8 |
| 20260504215644 | 25 | 195 | 3.2 | 4.8 | 0.00 | 0.00 | 0.00 | 47 | 999.8 |
| 20260504215142 | 25 | 228 | 3.2 | 4.8 | 0.00 | 0.00 | 0.00 | 47 | 1000.1 |
| 20260504214637 | 25 | 213 | 4.8 | 6.4 | 0.00 | 0.00 | 0.00 | 47 | 999.8 |
| 20260504214134 | 25 | 215 | 4.8 | 6.4 | 0.00 | 0.00 | 0.00 | 46 | 1000.1 |
| 20260504213631 | 25 | 244 | 3.2 | 4.8 | 0.00 | 0.00 | 0.00 | 46 | 1000.1 |
| 20260504213128 | 24 | 190 | 6.4 | 6.4 | 0.00 | 0.00 | 0.00 | 45 | 1000.1 |
| 20260504212624 | 25 | 207 | 3.2 | 4.8 | 0.00 | 0.00 | 0.00 | 45 | 1000.4 |
| 20260504212121 | 25 | 178 | 3.2 | 3.2 | 0.00 | 0.00 | 0.00 | 46 | 1000.1 |
| 20260504211619 | 25 | 274 | 9.7 | 16.1 | 0.00 | 0.00 | 0.00 | 44 | 1000.1 |
| 20260504211115 | 25 | 259 | 8.0 | 14.5 | 0.00 | 0.00 | 0.00 | 44 | 1000.1 |
| 20260504210613 | 24 | 226 | 9.7 | 12.9 | 0.00 | 0.00 | 0.00 | 44 | 1000.4 |
| 20260504210109 | 25 | 204 | 6.4 | 16.1 | 0.00 | 0.00 | 0.00 | 43 | 1000.9 |
| 20260504205606 | 25 | 246 | 9.7 | 17.7 | 0.00 | 0.00 | 0.00 | 42 | 1000.4 |
| 20260504205104 | 24 | 289 | 6.4 | 9.7 | 0.00 | 0.00 | 0.00 | 42 | 1000.9 |
| 20260504204602 | 25 | 309 | 6.4 | 11.3 | 0.00 | 0.00 | 0.00 | 42 | 1000.9 |
| 20260504204101 | 25 | 279 | 4.8 | 6.4 | 0.00 | 0.00 | 0.00 | 41 | 1000.9 |
| 20260504203559 | 25 | 185 | 14.5 | 16.1 | 0.00 | 0.00 | 0.00 | 39 | 1000.9 |
| 20260504203056 | 25 | 178 | 4.8 | 9.7 | 0.00 | 0.00 | 0.00 | 40 | 1000.9 |
| 20260504202551 | 25 | 217 | 3.2 | 4.8 | 0.00 | 0.00 | 0.00 | 39 | 1001.2 |
| 20260504202048 | 25 | 200 | 4.8 | 4.8 | 0.00 | 0.00 | 0.00 | 39 | 1000.9 |
| 20260504201545 | 25 | 196 | 12.9 | 20.9 | 0.00 | 0.00 | 0.00 | 38 | 1001.2 |
| 20260504201043 | 25 | 202 | 6.4 | 9.7 | 0.00 | 0.00 | 0.00 | 38 | 1001.2 |
| 20260504200539 | 25 | 213 | 4.8 | 4.8 | 0.00 | 0.00 | 0.00 | 38 | 1001.6 |
| 20260504200036 | 25 | 192 | 6.4 | 9.7 | 0.00 | 0.00 | 0.00 | 38 | 1001.2 |
| 20260504195532 | 25 | 186 | 4.8 | 4.8 | 0.00 | 0.00 | 0.00 | 39 | 1001.2 |
| 20260504195029 | 25 | 203 | 6.4 | 11.3 | 0.00 | 0.00 | 0.00 | 38 | 1001.2 |
| 20260504194525 | 25 | 234 | 9.7 | 12.9 | 0.00 | 0.00 | 0.00 | 38 | 1001.6 |
| 20260504194021 | 24 | 219 | 9.7 | 11.3 | 0.00 | 0.00 | 0.00 | 38 | 1001.6 |
| 20260504193518 | 25 | 182 | 1.6 | 3.2 | 0.00 | 0.00 | 0.00 | 38 | 1001.2 |
| 20260504193017 | 25 | 182 | 1.6 | 3.2 | 0.00 | 0.00 | 0.00 | 39 | 1001.2 |
| 20260504192514 | 25 | 286 | 6.4 | 17.7 | 0.00 | 0.00 | 0.00 | 38 | 1001.6 |
| 20260504192012 | 25 | 205 | 3.2 | 4.8 | 0.00 | 0.00 | 0.00 | 36 | 1001.6 |
| 20260504191510 | 25 | 276 | 8.0 | 9.7 | 0.00 | 0.00 | 0.00 | 37 | 1001.6 |
| 20260504191006 | 25 | 302 | 8.0 | 14.5 | 0.00 | 0.00 | 0.00 | 37 | 1001.6 |
| 20260504190502 | 25 | 207 | 4.8 | 6.4 | 0.00 | 0.00 | 0.00 | 37 | 1001.9 |
| 20260504185958 | 25 | 195 | 6.4 | 12.9 | 0.00 | 0.00 | 0.00 | 36 | 1001.9 |
| 20260504185455 | 25 | 198 | 9.7 | 12.9 | 0.00 | 0.00 | 0.00 | 35 | 1001.9 |
| 20260504184952 | 25 | 148 | 4.8 | 4.8 | 0.00 | 0.00 | 0.00 | 36 | 1001.9 |
| 20260504184447 | 25 | 214 | 4.8 | 4.8 | 0.00 | 0.00 | 0.00 | 36 | 1001.9 |
| 20260504183943 | 25 | 219 | 6.4 | 9.7 | 0.00 | 0.00 | 0.00 | 35 | 1001.9 |
| 20260504183440 | 25 | 125 | 1.6 | 3.2 | 0.00 | 0.00 | 0.00 | 37 | 1001.9 |
| 20260504182938 | 25 | 232 | 4.8 | 9.7 | 0.00 | 0.00 | 0.00 | 36 | 1002.2 |
| 20260504182435 | 25 | 273 | 4.8 | 4.8 | 0.00 | 0.00 | 0.00 | 36 | 1002.2 |
| 20260504181932 | 25 | 252 | 4.8 | 6.4 | 0.00 | 0.00 | 0.00 | 36 | 1001.9 |
| 20260504181429 | 25 | 202 | 4.8 | 6.4 | 0.00 | 0.00 | 0.00 | 36 | 1001.9 |
| 20260504180928 | 25 | 274 | 4.8 | 6.4 | 0.00 | 0.00 | 0.00 | 36 | 1002.2 |
| 20260504180426 | 25 | 264 | 4.8 | 4.8 | 0.00 | 0.00 | 0.00 | 38 | 1002.2 |
| 20260504175924 | 25 | 190 | 3.2 | 3.2 | 0.00 | 0.00 | 0.00 | 37 | 1002.6 |
| 20260504175421 | 25 | 233 | 14.5 | 22.5 | 0.00 | 0.00 | 0.00 | 36 | 1002.6 |
| 20260504174918 | 25 | 226 | 1.6 | 3.2 | 0.00 | 0.00 | 0.00 | 40 | 1002.6 |
| 20260504174416 | 23 | 182 | 3.2 | 4.8 | 0.00 | 0.00 | 0.00 | 42 | 1002.6 |
| 20260504173913 | 24 | 191 | 11.3 | 16.1 | 0.00 | 0.00 | 0.00 | 42 | 1002.9 |
| 20260504173409 | 23 | 280 | 6.4 | 6.4 | 0.00 | 0.00 | 0.00 | 42 | 1002.9 |
| 20260504172907 | 23 | 194 | 6.4 | 11.3 | 0.00 | 0.00 | 0.00 | 45 | 1002.9 |
| 20260504172403 | 23 | 170 | 6.4 | 9.7 | 0.00 | 0.00 | 0.00 | 43 | 1002.9 |
| 20260504171859 | 23 | 204 | 1.6 | 3.2 | 0.00 | 0.00 | 0.00 | 44 | 1003.2 |
| 20260504171357 | 23 | 161 | 6.4 | 11.3 | 0.00 | 0.00 | 0.00 | 46 | 1002.9 |
| 20260504170854 | 23 | 183 | 8.0 | 12.9 | 0.00 | 0.00 | 0.00 | 46 | 1003.2 |
| 20260504170350 | 23 | 221 | 9.7 | 12.9 | 0.00 | 0.00 | 0.00 | 46 | 1003.6 |
| 20260504160309 | 21 | 187 | 3.2 | 4.8 | 0.00 | 0.00 | 0.00 | 52 | 1004.3 |
| 20260504150734 | 18 | 251 | 4.8 | 6.4 | 0.00 | 0.00 | 0.00 | 57 | 1004.6 |
| 20260504150231 | 18 | 254 | 1.6 | 3.2 | 0.00 | 0.00 | 0.00 | 58 | 1004.6 |
| 20260504141200 | 16 | 193 | 1.6 | 3.2 | 0.00 | 0.00 | 0.00 | 64 | 1004.6 |
| 20260504140657 | 16 | 219 | 3.2 | 4.8 | 0.00 | 0.00 | 0.00 | 65 | 1004.9 |
| 20260504140152 | 16 | 183 | 1.6 | 1.6 | 0.00 | 0.00 | 0.00 | 65 | 1004.9 |
| 20260504130620 | 13 | 268 | 4.8 | 9.7 | 0.00 | 0.00 | 0.00 | 71 | 1005.6 |
| 20260504130117 | 13 | 267 | 8.0 | 11.3 | 0.00 | 0.00 | 0.00 | 71 | 1005.6 |